Wind_Speed
23 24 24 24 23 22 21 21 22 22 21 21 21 22 22 21 20 20 19 19 18 17 18 17 18 20 20 21 20 20 19 18 17 16 15 15 14 13 12 11 10 9 9 8 8 7 7 5 4 4 4 4 3 3 2 1 1 1 2 2 3 3 3 4 4 4 5 5 5
23 24 24 24 23 22 21 21 21 21 20 20 21 21 21 20 19 19 20 19 18 18 18 18 19 21 21 21 20 20 19 19 17 16 15 14 14 13 12 11 10 9 9 8 8 7 6 5 4 4 3 3 3 3 2 1 1 2 2 3 3 3 3 4 4 4 4 5 5
24 24 24 24 23 22 21 21 21 21 21 20 20 20 20 19 18 19 19 18 18 19 19 19 20 21 22 21 21 20 19 18 17 16 15 14 14 13 12 11 10 9 9 8 8 7 6 5 5 4 3 2 2 2 2 2 2 2 2 3 3 3 3 4 4 4 4 4 4
24 24 24 23 23 22 21 21 22 22 22 21 21 20 19 18 18 18 19 19 20 20 20 21 22 22 22 22 21 20 19 18 17 16 15 14 13 12 11 11 10 9 9 8 8 7 6 5 4 4 3 2 2 2 2 2 2 2 3 3 3 3 4 4 4 4 4 4 4
23 23 22 22 23 22 22 22 23 23 23 22 21 20 19 19 19 19 20 20 20 21 22 23 23 23 22 21 20 19 18 17 16 16 15 14 13 12 11 10 9 9 8 7 7 7 6 5 4 4 3 2 2 2 2 2 2 3 3 3 4 4 4 4 4 4 4 4 5
23 22 22 22 22 22 22 22 23 23 22 22 21 21 20 20 20 21 21 21 21 22 23 23 24 23 22 21 20 19 18 17 16 15 15 14 13 12 11 10 9 8 7 7 7 6 6 5 4 3 3 2 2 2 2 2 2 3 3 4 4 4 4 4 4 4 5 5 5
23 22 22 22 22 22 22 23 23 22 21 21 21 21 21 21 21 22 22 22 22 23 23 23 23 23 22 21 19 18 17 16 15 15 14 14 13 12 11 10 9 8 7 6 6 6 5 4 3 3 2 2 2 2 2 3 3 3 4 4 4 4 4 4 5 5 5 6 6
22 22 22 23 22 22 23 23 22 21 20 20 21 21 21 22 22 23 23 23 23 24 24 23 23 23 22 21 19 18 17 16 15 14 14 13 13 12 11 9 8 8 7 6 6 5 5 4 3 3 2 2 2 2 3 3 3 3 4 5 5 5 5 5 5 6 6 6 7
22 22 22 23 22 22 23 23 22 21 20 20 21 21 21 23 24 24 24 23 24 24 24 23 23 22 21 20 19 17 16 16 15 14 13 13 12 11 10 9 8 8 7 6 6 5 4 4 3 2 2 2 2 3 3 4 3 4 4 5 5 5 5 5 6 6 7 7 7
22 22 22 22 22 22 22 22 21 21 20 20 21 21 22 24 24 24 24 24 25 25 24 23 23 22 20 19 18 17 16 15 14 14 13 12 12 11 10 9 8 7 6 6 5 5 4 3 2 2 2 2 3 3 4 4 4 4 5 5 5 6 6 6 6 7 7 7 8
22 22 22 22 22 22 22 22 21 20 20 21 21 22 23 24 24 24 25 25 25 24 23 23 23 21 20 19 18 17 16 15 14 14 13 12 11 10 9 9 8 7 6 5 5 4 4 3 2 2 2 2 3 4 4 4 4 5 5 6 6 6 7 7 7 7 7 8 8
22 22 22 23 23 23 23 22 21 21 21 21 22 22 23 23 24 24 25 25 24 24 23 23 22 21 20 19 17 16 15 15 14 13 13 12 11 10 9 9 8 7 6 5 4 4 4 3 2 2 3 3 3 4 4 5 5 6 6 6 7 7 7 7 7 7 7 8 8
23 23 23 23 24 24 23 22 22 21 22 22 22 23 23 23 24 25 25 25 24 24 23 22 21 20 19 18 17 16 15 15 14 13 12 11 10 10 9 8 7 6 5 4 4 4 3 2 2 2 3 3 4 4 4 5 6 6 7 7 7 7 8 8 8 8 8 8 9
23 23 24 24 24 24 23 22 21 21 22 22 23 23 23 23 24 25 25 24 24 24 23 22 20 19 18 18 17 16 15 15 14 13 12 11 10 9 8 7 7 6 4 3 3 3 3 2 1 2 2 3 4 4 5 5 6 7 7 7 8 8 8 8 8 8 9 9 9
23 23 24 24 24 23 23 22 21 21 22 23 23 23 24 24 24 24 24 24 24 23 23 21 19 18 17 17 17 16 15 14 13 12 11 10 9 9 8 7 6 5 4 3 2 2 2 1 1 2 3 4 4 5 5 6 6 7 7 8 8 8 9 9 9 9 9 9 10
23 23 24 24 23 23 22 21 21 21 22 23 23 24 24 23 23 23 23 23 23 22 22 20 19 18 17 17 16 16 15 14 13 12 11 10 9 8 7 6 6 5 4 3 2 1 0 1 1 2 3 4 5 6 6 7 7 7 8 8 9 9 9 9 9 9 10 10 10
23 23 23 23 22 22 21 21 21 21 22 23 24 24 24 23 23 23 23 23 22 21 21 20 20 19 18 17 16 15 14 13 12 11 10 9 8 8 7 6 5 4 4 3 2 1 1 1 2 3 4 5 6 6 7 7 7 8 8 9 9 9 10 10 10 10 10 10 11
22 22 22 22 21 21 21 21 21 22 23 24 24 24 24 23 23 23 22 22 22 22 21 21 20 20 19 18 16 15 14 13 12 11 10 9 8 7 6 5 4 4 3 3 2 1 1 2 3 4 5 6 6 7 7 8 8 9 9 9 10 10 10 10 10 10 10 11 11
22 22 21 21 21 21 21 21 22 23 24 24 24 24 24 24 23 23 22 21 22 22 22 21 20 19 18 17 16 15 14 13 12 11 10 9 8 7 6 4 3 3 3 2 1 0 1 2 3 4 5 6 7 7 8 8 9 9 9 10 10 10 10 10 11 11 11 11 12
22 21 21 21 21 21 21 22 23 23 23 23 24 24 24 23 23 23 22 22 22 22 22 21 20 19 18 17 16 15 13 12 11 11 10 9 8 6 5 4 3 3 2 2 1 1 2 3 4 5 6 7 8 8 9 9 9 10 10 10 10 11 11 11 11 11 12 12 12
21 21 21 21 21 22 22 22 23 23 23 23 24 24 24 23 23 23 22 22 22 22 21 21 20 18 17 16 15 14 13 12 11 10 9 8 7 6 5 4 3 3 2 2 2 2 3 4 5 6 7 7 8 9 9 10 10 10 11 11 11 11 11 11 12 12 12 12 13
21 21 22 22 22 22 23 23 23 23 23 23 24 24 24 23 23 23 23 22 22 21 20 19 19 18 17 16 15 14 13 12 11 10 9 7 6 5 4 4 3 3 2 2 2 2 3 4 5 6 7 8 9 9 10 10 11 11 12 12 12 12 12 12 12 12 13 13 13
22 22 22 22 22 23 24 24 24 23 23 24 24 24 23 23 23 23 22 22 21 20 19 18 18 17 16 15 14 14 13 12 10 9 8 6 5 4 4 4 3 3 2 1 2 3 3 4 5 6 7 8 9 9 10 11 11 12 12 13 13 13 13 13 12 13 13 13 14
23 22 22 22 23 24 24 24 24 24 23 23 23 23 23 23 23 22 22 21 20 19 19 18 17 16 15 14 14 13 12 11 9 8 7 6 5 4 4 3 3 2 1 2 4 5 4 4 5 6 7 8 9 9 10 11 11 12 13 13 13 13 13 13 13 13 13 14 14
23 23 23 24 24 24 24 24 24 23 23 23 23 23 23 23 22 21 21 20 19 19 18 17 17 16 15 14 13 12 11 10 9 7 6 5 4 4 3 3 2 1 2 4 6 6 6 5 5 6 7 8 9 9 10 11 11 12 13 13 13 14 14 13 13 13 13 13 13
24 24 24 24 24 24 24 24 24 24 24 23 23 23 22 22 21 21 20 19 19 18 18 17 16 16 15 14 13 11 10 9 8 7 5 4 4 3 3 2 2 0 3 6 7 7 6 5 5 6 7 8 9 10 11 11 12 12 13 13 13 13 13 13 13 13 13 13 13
25 25 25 25 25 24 24 24 24 24 23 23 22 22 21 21 20 20 20 19 19 18 17 17 16 15 14 13 12 11 10 8 7 6 5 4 3 3 2 2 1 1 4 6 7 7 6 5 5 6 8 8 9 10 11 12 12 13 13 13 13 13 13 13 13 13 13 13 13
26 25 25 25 25 24 24 24 24 23 23 22 22 21 21 20 20 20 19 19 18 17 16 16 15 14 13 12 11 10 9 8 7 5 4 4 3 3 2 1 1 2 4 7 7 7 6 6 6 7 8 9 9 10 11 12 13 13 13 13 13 12 12 13 13 13 13 13 14
26 26 26 25 25 24 24 23 23 22 22 21 21 21 21 20 19 19 19 18 17 16 15 14 14 13 12 11 10 9 8 7 5 4 4 3 3 2 1 0 0 2 5 7 8 7 6 6 6 7 8 9 10 10 11 12 12 13 13 13 13 12 12 12 13 13 13 14 14
26 26 26 25 24 23 23 22 22 22 21 21 21 20 20 19 19 18 17 16 15 15 14 14 13 12 11 10 9 8 7 6 5 4 3 3 2 1 0 1 1 3 5 8 8 8 7 7 7 8 9 10 11 11 12 12 13 13 13 13 13 13 13 13 13 13 14 13 14
25 25 25 24 23 23 22 22 22 21 21 21 20 20 19 18 17 16 16 15 14 14 14 13 12 12 11 10 8 7 6 5 4 3 3 2 1 0 1 2 2 3 5 8 9 9 8 8 8 9 9 10 11 12 12 13 13 13 14 13 13 13 13 13 13 13 13 13 14
24 24 24 24 23 22 22 22 22 21 21 20 20 19 18 17 16 15 15 14 14 14 13 13 12 11 10 9 7 6 5 4 3 2 2 1 1 1 2 2 2 4 6 9 10 10 9 9 9 9 10 11 12 12 13 13 14 14 14 14 14 13 13 13 13 13 13 13 13
23 23 23 23 23 23 22 22 21 21 20 19 19 18 17 17 16 16 15 14 14 13 13 12 11 11 9 8 7 6 5 3 2 1 1 2 2 2 2 3 2 5 8 10 11 11 10 10 10 10 11 12 13 13 13 13 13 13 13 13 13 13 13 13 13 13 13 13 13
22 22 23 23 23 23 22 22 21 21 20 19 18 18 17 17 16 16 15 14 13 12 12 11 10 9 8 7 7 6 4 3 1 1 1 2 2 2 3 3 3 5 9 11 12 12 11 11 10 11 12 13 13 13 13 13 13 13 13 13 13 13 13 13 13 13 13 13 13
22 22 23 23 22 22 22 21 21 20 19 18 18 18 17 17 17 16 15 14 13 12 11 10 10 9 8 7 6 5 4 2 1 0 1 2 2 3 3 4 4 6 9 11 12 12 12 11 11 11 12 13 12 12 12 13 13 13 13 13 13 13 13 13 12 12 12 12 12
22 23 23 23 22 22 21 21 20 20 19 18 18 17 17 17 16 15 15 13 13 12 11 10 9 8 7 6 5 4 3 2 1 0 1 2 3 3 4 5 4 6 8 11 12 13 12 12 11 12 12 12 12 12 12 12 12 13 13 13 13 12 12 12 12 12 12 11 11
22 23 23 23 22 21 21 20 20 19 19 18 18 18 17 16 15 14 14 13 12 11 10 9 8 7 6 5 4 3 2 1 0 1 1 2 3 4 4 5 5 6 7 10 11 13 13 12 12 12 12 12 12 12 12 12 12 12 12 12 12 12 12 12 12 11 11 11 11
22 22 22 22 22 21 20 20 20 19 19 18 18 17 16 16 15 14 12 12 11 10 9 8 7 6 5 4 3 1 0 1 1 1 2 2 3 4 5 6 6 6 7 9 11 12 12 12 12 12 12 12 12 12 12 12 12 12 12 12 12 11 11 11 11 11 11 11 12
21 22 22 22 22 21 20 20 19 19 19 18 17 16 15 15 14 13 12 10 10 9 8 7 6 5 4 3 2 1 1 1 2 2 2 3 4 6 7 7 7 6 7 8 10 11 11 11 11 12 12 12 12 12 11 11 11 11 11 11 11 11 11 11 11 12 12 13 14
21 22 22 22 21 20 20 19 19 19 18 18 17 15 15 15 14 13 11 10 9 8 7 7 5 4 3 3 2 2 1 2 2 3 4 4 5 7 8 7 7 7 7 7 8 10 10 11 11 11 12 11 11 11 11 11 11 11 11 11 11 11 11 11 12 13 14 14 15
21 21 21 20 20 19 19 18 18 18 18 17 16 15 15 14 14 12 11 10 8 7 7 6 5 3 2 2 1 1 2 2 3 3 4 5 6 7 7 7 7 7 7 7 8 9 10 11 11 11 11 11 11 11 11 11 11 11 11 11 11 11 12 13 13 14 14 15 15
Wind_Direction
155 156 156 156 155 154 154 155 156 157 156 156 157 159 161 162 162 161 161 159 157 157 157 156 154 154 154 156 156 154 152 152 153 155 156 155 153 150 147 144 139 134 128 125 124 125 126 127 128 129 131 137 144 157 178 224 242 249 252 255 261 267 273 274 272 270 268 268 267
154 155 155 154 154 153 153 154 156 157 158 157 158 159 161 163 163 162 162 162 161 159 157 155 155 154 154 155 156 154 152 152 153 154 154 153 152 149 145 142 137 132 129 126 126 127 128 129 129 129 128 131 144 159 181 238 283 275 262 262 264 269 273 273 270 269 270 271 270
153 154 154 154 154 154 154 155 157 158 158 157 159 160 162 163 163 163 163 163 161 159 156 155 154 154 154 155 154 153 152 152 153 153 153 152 150 147 144 141 137 134 132 130 130 130 130 133 135 135 134 132 150 167 185 223 276 278 265 265 265 267 269 269 267 267 268 269 272
153 153 154 155 156 156 156 157 157 158 157 158 158 159 161 163 162 161 160 159 159 158 156 154 153 153 154 153 152 151 152 153 153 152 151 150 148 146 144 141 138 137 135 135 134 133 133 136 137 139 142 147 161 177 197 227 255 262 261 261 260 261 263 263 263 264 266 269 272
153 154 155 156 156 156 155 156 156 156 155 156 157 158 160 161 160 159 156 154 155 157 157 155 153 153 153 152 150 150 150 152 153 152 150 148 147 145 143 141 140 138 137 137 136 136 136 137 140 139 140 150 164 185 210 236 251 256 256 254 252 253 256 260 261 263 266 269 272
153 154 154 155 154 153 152 153 153 153 153 155 156 157 159 159 158 156 154 153 154 155 155 154 153 152 150 149 148 149 150 151 152 151 149 147 146 145 143 142 140 138 136 134 133 132 132 135 137 136 139 153 172 200 225 246 253 256 255 250 246 247 251 257 261 264 267 269 273
152 152 151 152 152 151 150 151 151 152 152 155 157 158 158 157 155 154 152 152 153 153 153 152 151 149 148 147 147 149 150 150 150 150 149 147 146 145 144 142 139 136 132 129 125 124 127 133 139 141 149 178 191 209 231 255 259 260 258 254 250 247 249 256 261 265 268 270 275
150 150 150 150 150 149 149 150 151 151 153 156 158 158 157 154 153 151 151 151 151 151 151 150 149 148 147 147 148 149 149 149 148 148 148 147 146 145 144 141 137 133 130 126 125 127 131 135 139 144 157 190 206 211 225 250 262 265 261 261 256 253 253 258 262 265 268 272 275
148 149 149 149 148 148 149 150 151 153 155 157 159 157 154 152 151 151 151 150 151 151 150 148 148 147 147 147 148 148 148 147 147 147 147 147 146 144 142 139 136 133 131 129 131 134 136 134 137 149 176 208 215 217 227 249 262 266 263 262 261 259 260 262 265 269 272 275 277
147 148 148 148 148 148 148 150 152 154 155 156 156 154 151 151 151 151 151 151 151 150 148 147 146 146 145 146 147 147 147 146 146 146 146 146 145 143 140 138 136 134 132 132 135 136 136 137 148 167 190 213 219 225 237 251 260 263 262 262 263 266 267 268 271 274 276 277 278
147 147 148 148 148 148 148 150 151 153 154 153 151 149 149 149 150 151 151 150 148 147 146 146 145 145 145 146 146 146 146 146 145 145 144 144 143 142 140 137 136 136 136 137 136 135 137 145 162 187 208 221 228 232 239 249 258 262 265 266 267 270 272 273 275 276 277 278 280
145 146 147 147 147 148 148 149 150 151 151 149 147 146 147 148 149 149 149 147 145 144 144 145 145 145 145 145 145 145 145 144 143 142 142 142 142 142 140 139 139 140 142 141 136 133 135 146 170 197 218 229 236 239 243 250 259 266 269 270 272 274 276 278 279 279 279 280 281
143 144 145 145 146 147 147 148 148 149 147 144 144 144 145 146 147 147 146 145 143 142 142 143 144 145 145 145 144 144 143 142 141 141 141 141 142 141 140 140 140 141 142 138 130 126 130 147 175 208 229 239 245 248 252 258 265 270 274 276 278 279 280 282 283 283 283 282 282
141 142 143 144 145 146 146 146 145 144 143 142 142 143 143 143 144 144 144 143 142 141 140 141 143 144 145 144 144 143 141 141 141 141 141 141 141 140 138 137 137 137 136 129 118 118 128 156 194 224 242 253 257 260 263 266 269 273 276 279 282 283 284 285 285 285 285 284 284
140 141 143 144 145 146 145 144 143 141 141 141 142 142 141 141 141 142 142 141 140 139 139 140 140 142 143 143 143 141 140 139 139 139 138 137 137 136 134 133 132 131 129 120 109 109 124 166 217 246 257 265 267 270 270 272 273 275 277 280 282 284 285 286 286 286 286 285 286
139 142 143 145 145 145 145 143 142 141 141 141 141 141 140 139 140 140 140 139 138 138 139 139 139 140 141 141 141 139 138 137 136 135 134 133 132 132 131 130 129 128 125 119 115 116 154 233 259 268 273 274 276 277 277 277 278 279 280 281 282 283 285 286 286 286 286 286 286
140 143 145 146 146 145 144 144 142 142 141 141 140 140 139 138 139 139 138 138 138 138 138 139 140 139 139 139 138 137 135 134 133 132 131 131 130 130 130 130 129 127 124 124 134 171 228 260 271 278 281 281 280 280 280 281 281 282 282 282 283 283 284 285 285 285 286 285 286
142 144 146 146 146 146 145 143 142 141 141 140 139 138 138 138 138 138 137 138 138 139 139 139 140 140 139 138 136 134 132 132 131 131 131 131 131 132 133 133 129 121 118 123 139 182 241 262 273 277 280 280 280 280 282 283 283 283 284 284 284 284 284 284 284 284 285 285 286
143 145 146 147 147 146 144 141 139 139 139 138 137 137 137 137 137 137 136 137 139 140 140 139 139 139 139 137 135 132 131 130 130 131 133 134 134 135 135 131 119 108 103 108 115 222 281 284 282 282 282 282 282 282 283 284 284 284 284 285 285 285 285 285 285 285 284 284 285
144 146 147 147 146 144 142 138 137 136 136 136 135 134 134 135 136 135 135 137 139 141 141 139 138 138 137 136 134 131 131 131 132 133 134 136 135 135 132 123 108 94 83 74 46 342 311 297 292 289 287 286 286 285 285 284 284 284 284 285 286 286 287 287 287 286 285 284 285
144 145 145 145 144 140 137 135 134 134 133 132 132 132 132 133 133 134 135 137 139 140 139 138 137 136 136 135 133 132 132 133 134 135 135 135 134 132 126 114 103 87 69 47 13 336 313 303 298 294 292 291 289 287 286 285 285 285 285 285 286 287 287 288 289 288 288 287 286
143 143 143 142 139 136 133 132 132 132 130 129 129 129 130 130 131 133 134 136 136 136 136 135 136 135 135 135 135 135 135 136 135 135 134 132 129 122 110 98 93 85 67 32 353 326 314 308 304 300 298 296 293 291 290 289 288 288 287 287 287 287 288 289 290 290 290 290 289
140 139 138 137 134 131 130 130 130 129 128 127 127 127 128 129 130 131 132 132 133 133 133 133 133 133 134 136 136 136 135 134 133 131 128 122 114 103 89 80 81 79 65 7 330 325 320 315 312 308 305 302 300 298 296 295 293 292 290 289 288 289 289 290 291 292 292 292 291
137 135 133 131 129 128 128 128 127 126 125 125 126 127 127 128 129 129 130 130 130 131 131 131 132 133 134 135 135 133 131 130 128 123 117 108 96 86 80 82 85 85 32 325 331 335 335 330 322 317 312 308 305 303 301 299 297 295 293 291 291 291 290 291 292 292 293 293 293
132 130 128 127 126 126 126 126 125 124 124 124 125 126 127 127 128 128 128 128 129 130 131 131 133 133 134 132 131 129 127 124 121 117 110 101 90 84 86 96 103 91 317 327 337 342 342 340 330 319 312 309 306 304 302 299 297 295 293 292 291 291 291 291 292 292 293 294 295
129 127 126 126 125 125 124 124 124 123 124 124 125 125 126 127 127 128 128 128 129 131 132 133 133 134 133 131 129 127 124 121 117 114 111 107 98 93 95 107 115 321 318 330 339 343 344 340 327 314 309 306 305 303 301 299 297 295 293 291 290 289 290 291 292 294 295 297 298
127 126 126 125 125 124 124 124 123 123 123 124 124 125 126 127 128 128 128 128 130 132 133 133 133 133 132 130 128 126 124 122 120 119 116 113 105 98 98 109 129 290 312 327 336 342 342 334 319 311 307 306 304 302 300 298 297 295 292 290 288 287 288 290 293 295 298 299 300
127 126 125 125 123 123 123 123 123 123 123 124 125 126 127 128 128 128 129 129 131 131 132 132 132 132 130 128 127 126 126 124 122 118 112 101 91 89 95 112 154 287 308 323 333 339 338 328 316 309 308 306 304 301 298 296 295 294 293 291 289 288 289 291 294 297 299 301 302
127 126 125 124 123 122 123 123 123 123 124 125 126 127 128 128 128 128 128 129 130 130 130 131 132 131 129 128 128 127 125 121 116 108 96 83 79 77 81 118 233 286 304 321 332 337 334 325 315 310 308 307 305 301 298 295 294 294 292 291 290 290 291 293 295 297 299 300 301
127 126 124 123 122 122 123 123 124 125 126 127 127 127 127 127 126 126 127 128 128 130 132 133 132 130 129 129 128 125 121 115 107 95 86 85 96 96 329 301 272 284 302 319 330 334 331 323 315 311 308 308 305 301 297 294 293 292 291 290 290 290 291 293 295 296 297 299 300
126 125 124 123 123 123 125 126 126 127 127 127 127 126 125 125 125 125 126 128 130 132 134 133 131 129 129 128 124 121 116 109 100 91 89 92 94 338 311 298 277 278 296 313 325 330 329 323 316 312 310 310 307 302 297 294 292 291 290 289 289 289 291 293 294 296 296 298 299
125 125 125 125 125 126 126 127 127 127 127 126 126 125 124 124 125 127 129 131 133 133 132 131 130 128 126 123 121 118 114 109 105 100 89 64 18 339 317 296 274 269 285 306 320 328 328 325 319 315 312 310 307 303 298 294 292 291 289 288 288 288 290 292 294 295 296 297 299
126 126 126 126 126 126 127 126 126 126 126 125 125 125 125 126 128 129 131 132 132 131 130 128 127 125 122 121 121 121 120 117 115 97 42 14 2 338 312 291 274 270 283 303 318 326 329 326 321 317 314 312 309 304 299 296 294 292 290 289 289 289 290 292 293 295 296 297 298
127 127 126 125 125 125 126 126 126 126 125 125 125 127 129 130 130 131 131 130 129 128 127 126 125 124 123 124 126 128 129 127 118 61 12 359 346 323 303 290 277 278 288 303 316 324 328 327 323 319 316 315 311 306 301 299 296 294 292 291 291 291 292 293 294 295 296 297 297
128 126 125 125 125 125 125 125 126 126 126 125 127 129 131 133 133 132 132 132 131 130 130 130 131 131 131 132 133 132 131 132 125 33 347 340 325 308 299 293 284 285 292 303 313 321 327 328 325 322 320 317 312 307 304 301 299 296 294 294 294 294 295 295 296 296 296 296 297
128 127 126 125 125 125 125 126 126 126 127 127 129 131 133 134 135 136 136 136 136 135 134 134 132 131 129 128 126 126 127 132 140 295 313 316 309 304 301 299 294 291 295 302 310 318 324 327 327 324 322 318 314 309 306 303 301 299 298 297 297 297 298 298 298 297 297 297 299
128 128 127 126 125 125 126 127 127 127 127 129 131 133 134 135 136 138 138 138 137 134 132 129 125 123 123 123 127 129 130 121 144 264 283 295 300 300 302 302 301 297 296 300 306 314 322 327 327 325 323 320 316 312 308 305 303 301 301 300 300 300 301 301 300 299 300 301 304
128 128 128 127 126 126 127 128 128 128 129 131 133 135 136 136 136 136 136 135 132 129 126 124 123 126 129 130 134 139 144 338 320 294 278 282 290 296 301 305 304 302 299 299 305 312 319 325 325 324 323 320 316 313 310 308 305 304 303 303 302 303 303 304 304 304 305 307 308
128 129 128 127 127 127 128 128 129 130 131 133 134 135 136 135 135 134 132 130 126 125 125 126 131 134 132 123 130 148 232 292 304 304 293 285 289 298 305 309 307 306 304 303 306 312 318 321 322 323 322 320 317 314 311 309 307 305 304 304 305 306 307 308 309 310 310 310 309
128 128 128 127 127 127 127 127 129 131 133 134 134 134 136 137 136 134 131 128 125 123 124 127 132 130 118 111 132 166 204 247 276 290 295 294 295 304 312 314 310 308 308 309 311 314 317 318 320 322 322 321 319 316 313 310 308 306 306 307 309 311 312 313 313 312 311 309 308
126 126 125 125 125 126 126 127 129 132 134 135 136 137 139 140 137 134 130 126 124 123 125 128 129 124 109 108 144 192 222 240 254 271 286 296 299 305 310 310 306 306 310 314 316 317 318 319 319 321 323 323 321 318 314 312 309 308 309 312 314 316 316 315 313 311 310 308 308
Height
732 734 737 739 742 744 747 749 751 753 755 758 760 762 764 766 768 769 771 772 774 775 777 778 779 780 781 783 784 784 785 787 789 791 793 793 794 795 795 795 796 796 797 797 798 798 799 800 800 801 801 802 802 803 803 803 803 804 804 804 804 804 804 804 804 804 804 804 804
732 734 736 739 741 744 746 749 751 753 755 758 759 761 763 765 767 768 770 772 773 775 776 778 778 779 781 783 783 784 785 787 789 791 792 793 793 794 794 795 795 796 796 797 798 798 799 799 800 800 801 801 802 803 803 803 803 803 804 804 804 804 804 804 804 804 803 803 803
732 734 736 738 741 743 745 748 750 753 755 757 759 761 763 765 767 768 770 772 773 774 776 777 778 779 781 782 783 784 785 787 789 791 792 793 793 793 794 794 795 795 796 797 797 798 798 799 800 800 801 801 802 802 803 803 803 803 803 804 804 803 803 803 803 803 803 803 803
732 734 736 738 740 742 744 747 749 751 754 756 758 761 763 765 767 768 769 771 772 774 775 776 777 779 780 782 783 784 786 788 789 790 791 792 793 793 793 794 794 795 796 796 797 798 798 799 799 800 800 801 802 802 803 803 803 803 803 803 803 803 803 803 803 803 803 802 802
732 734 736 738 740 742 744 746 748 751 753 755 758 760 763 764 766 768 769 770 772 773 774 775 777 778 780 781 783 784 786 788 789 790 791 792 792 793 793 794 794 795 795 796 796 797 798 798 799 799 800 801 801 802 802 802 803 803 803 803 803 803 803 803 802 802 802 802 801
732 734 736 738 740 742 744 746 748 750 753 755 757 759 762 763 765 766 768 769 771 772 774 775 777 778 780 781 783 785 787 788 789 790 791 791 792 793 793 793 794 794 795 795 796 797 797 798 798 799 800 800 801 801 802 802 802 802 802 802 802 802 802 802 802 801 801 801 801
731 734 736 738 740 742 743 746 748 751 753 755 757 758 760 762 763 765 766 768 770 772 773 775 777 778 779 781 783 785 787 788 789 790 790 791 792 792 793 793 793 794 795 795 796 797 797 798 798 799 799 800 800 801 801 801 802 802 802 802 802 802 802 801 801 801 800 800 800
732 733 736 738 739 741 743 746 748 751 753 755 757 758 760 761 763 764 766 768 769 771 773 775 777 778 779 781 783 785 787 788 789 790 790 791 792 792 793 793 793 794 794 795 796 797 797 798 798 798 799 800 800 801 801 801 801 801 801 802 801 801 801 801 800 800 800 799 799
732 734 736 738 739 742 744 746 748 750 753 755 757 758 760 761 762 763 765 768 769 771 773 775 776 778 779 782 783 785 787 788 788 789 790 791 791 792 792 793 793 794 794 795 796 796 797 797 798 798 799 799 800 800 801 801 801 801 801 801 801 801 800 800 800 799 799 798 798
732 734 736 738 740 742 744 746 749 751 753 755 757 758 759 760 762 763 765 767 769 771 773 775 776 778 780 782 784 785 786 788 788 789 790 790 791 792 792 793 793 794 794 795 796 796 797 797 798 798 799 799 800 800 800 800 800 800 800 800 800 800 800 799 799 798 798 798 797
732 733 735 738 740 742 744 747 749 751 753 755 757 758 759 760 762 764 765 767 769 771 773 774 776 778 780 782 784 785 786 787 788 789 789 790 791 792 792 793 793 794 794 795 795 796 796 797 798 798 798 799 799 800 800 800 800 800 800 800 799 799 799 798 798 798 798 797 797
732 734 736 738 740 742 744 747 749 752 753 755 757 758 759 761 762 763 765 768 769 771 773 774 776 778 780 782 783 785 786 787 788 788 789 790 791 791 792 793 793 794 794 795 795 796 796 797 798 798 798 799 799 799 799 799 799 799 799 799 799 798 798 798 797 797 797 796 796
732 734 736 738 740 742 744 747 749 751 753 755 756 758 759 761 762 764 766 768 769 771 773 775 777 778 780 782 783 784 786 787 787 788 789 790 791 791 792 793 793 794 794 795 795 796 796 797 797 798 798 798 799 799 799 799 799 799 798 798 798 798 797 797 797 796 796 795 795
732 734 736 738 740 743 745 747 749 751 753 754 756 758 759 761 763 764 766 768 769 771 773 775 777 779 780 782 783 784 785 786 787 788 789 790 791 792 792 793 793 794 794 795 795 795 796 797 797 798 798 798 798 798 798 798 798 798 798 798 797 797 796 796 796 795 795 794 794
733 735 737 738 741 743 745 747 749 751 753 754 756 758 759 761 763 764 766 768 769 771 773 775 777 779 781 782 783 784 785 786 787 788 789 790 791 792 792 793 793 794 794 795 795 795 796 796 797 797 797 798 798 798 798 798 798 797 797 797 796 796 796 795 795 794 794 793 793
734 736 738 739 741 743 745 747 749 751 753 754 756 758 759 761 763 765 766 768 769 771 773 775 777 779 781 782 783 783 784 786 787 788 789 790 791 792 793 793 793 794 794 795 795 795 796 796 796 797 797 797 797 797 797 797 797 796 796 796 795 795 795 794 794 793 793 793 792
734 736 738 740 742 743 745 747 748 750 752 754 756 757 759 761 763 765 766 768 769 772 773 775 777 778 780 782 783 783 784 786 787 788 789 790 791 792 793 793 793 794 794 795 795 796 796 796 796 796 796 796 796 796 796 796 796 796 795 795 795 794 794 793 793 793 792 792 791
735 737 739 741 742 744 746 747 748 750 752 754 755 757 759 761 763 765 767 768 770 772 773 775 777 778 780 781 782 783 784 786 787 788 789 790 791 792 793 793 793 794 794 795 795 795 796 796 796 796 796 796 796 796 795 795 795 795 794 794 794 793 793 793 792 792 791 791 790
736 738 740 742 743 745 747 748 749 751 752 754 755 757 759 761 763 765 767 769 770 772 773 775 777 778 780 781 782 783 784 786 787 788 789 790 791 792 793 793 793 794 794 794 795 795 795 795 795 796 795 795 795 795 795 794 794 794 793 793 793 792 792 791 791 790 790 789 789
737 738 741 743 744 746 748 749 750 752 753 754 756 757 759 761 763 765 767 769 771 773 774 775 777 778 780 781 782 783 784 786 787 788 789 790 791 792 793 793 793 794 794 794 794 795 795 795 795 795 795 795 794 794 794 794 793 793 793 792 792 791 791 790 790 789 789 788 788
738 739 742 743 745 747 748 750 751 753 754 755 756 758 760 762 764 766 768 769 771 773 774 776 777 778 780 781 782 783 784 786 787 788 789 790 791 792 792 793 793 793 794 794 794 794 794 794 794 794 794 794 794 794 793 793 793 792 792 791 791 790 790 789 789 788 788 787 787
738 740 743 744 746 747 748 750 752 754 755 756 757 759 761 763 765 767 768 770 772 773 775 776 777 778 780 781 782 783 784 786 787 788 789 790 791 792 792 793 793 793 793 794 794 794 794 794 794 794 794 793 793 793 793 792 792 791 791 790 790 789 789 788 788 787 787 786 785
739 741 743 745 746 748 749 751 753 755 756 757 758 760 762 764 766 768 769 771 773 774 775 777 778 779 780 781 782 783 784 786 787 788 789 790 791 791 792 792 793 793 793 793 793 793 793 793 793 793 793 793 793 792 792 792 791 790 790 789 788 788 788 787 786 786 785 785 784
740 742 743 745 746 748 750 752 754 755 757 758 759 761 763 765 767 768 770 772 773 774 775 777 778 779 780 782 783 784 785 786 787 788 789 790 791 791 792 792 793 793 793 793 793 793 793 793 793 793 793 793 792 792 791 791 790 789 789 788 787 787 786 786 785 785 784 783 783
740 742 743 745 747 749 751 753 754 756 757 759 761 762 764 766 768 769 771 772 773 775 776 777 778 779 781 782 783 784 785 786 787 788 789 790 791 791 792 792 793 793 793 792 792 792 792 792 792 792 792 792 791 791 790 790 789 788 788 787 786 786 785 784 784 783 783 782 782
741 742 744 745 748 749 752 753 755 757 758 760 762 763 765 767 768 770 771 773 774 775 776 778 779 780 781 782 783 784 785 786 787 788 789 790 791 791 792 792 792 792 792 792 792 792 792 792 792 792 791 791 791 790 789 789 788 787 787 786 785 784 784 783 783 782 782 781 780
741 743 744 746 748 750 752 754 756 757 759 761 763 765 767 768 769 770 772 773 774 775 777 778 779 780 781 783 783 784 785 786 787 788 789 790 791 791 792 792 792 792 792 791 791 791 791 791 791 791 791 790 790 789 788 788 787 786 785 785 784 783 783 782 781 781 780 780 779
741 743 745 747 749 751 753 755 757 758 760 762 764 766 767 769 770 771 772 773 775 776 777 778 780 781 782 783 783 784 785 786 787 788 789 790 790 791 791 792 792 792 791 791 791 791 791 791 790 790 790 789 789 788 788 787 786 785 784 783 783 782 781 781 780 780 779 779 778
742 743 745 748 750 752 754 756 758 759 762 763 765 767 768 769 771 772 773 774 775 777 778 779 780 781 782 783 783 784 785 787 787 788 789 790 790 791 791 791 791 791 791 790 790 790 790 790 790 789 789 788 788 787 786 786 785 784 783 782 782 781 780 780 779 779 778 778 777
742 744 746 748 750 753 755 757 759 761 763 764 766 767 769 770 771 773 774 775 776 777 778 779 780 781 782 783 784 785 786 787 788 788 789 790 790 791 791 791 791 791 790 790 790 790 789 789 789 788 788 788 787 786 785 784 783 783 782 781 780 780 779 779 778 778 777 777 776
743 744 746 749 752 754 756 758 760 762 763 765 767 768 769 771 772 773 775 776 777 778 779 780 780 781 782 783 784 785 786 787 788 788 789 789 790 790 790 790 790 790 790 789 789 789 789 788 788 788 787 787 786 785 784 783 783 782 781 780 779 779 778 778 777 777 776 776 775
744 746 748 750 753 755 758 759 761 763 764 766 767 769 770 772 773 774 775 776 777 778 779 780 781 782 783 783 784 785 786 787 788 788 789 789 789 790 790 790 790 790 789 789 788 788 788 788 787 786 786 785 784 784 783 782 781 780 779 779 778 778 777 777 776 776 775 775 774
746 747 749 752 754 756 758 760 761 763 765 767 768 769 771 772 773 774 776 777 778 779 779 780 781 782 783 784 785 786 786 787 788 788 788 789 789 789 789 790 790 789 788 788 788 788 787 787 786 785 785 784 783 782 781 781 780 779 778 778 777 777 776 776 775 775 774 774 774
747 749 751 753 755 757 758 760 762 764 765 767 768 770 771 773 774 775 776 777 778 779 780 781 782 783 783 784 785 786 787 787 788 788 788 788 789 789 789 789 789 788 788 787 787 787 786 786 785 784 783 783 782 781 780 779 779 778 777 777 776 776 775 775 774 774 773 773 773
748 750 752 754 755 757 759 761 763 764 766 768 769 771 772 773 774 775 776 778 778 779 780 781 782 783 783 784 785 786 786 787 787 788 788 788 788 788 789 789 789 788 787 786 786 786 785 784 784 783 783 782 781 780 779 778 778 777 776 776 775 774 774 774 773 773 773 772 772
750 751 753 755 756 758 759 761 763 765 766 768 769 771 772 773 775 776 777 778 778 779 780 781 782 783 783 784 785 786 786 787 787 788 788 788 788 788 788 788 788 787 786 786 785 785 784 783 783 782 781 781 780 779 778 778 777 776 775 775 774 773 773 773 772 772 772 771 771
751 752 754 755 757 758 760 762 763 765 767 768 770 771 773 774 775 776 777 778 778 779 780 781 782 783 784 784 785 786 786 787 787 787 788 788 788 788 788 788 787 787 786 785 784 784 783 783 782 781 781 780 779 778 778 777 776 775 774 774 773 773 772 772 772 771 771 770 770
752 753 755 756 758 759 761 763 764 766 768 769 771 772 773 774 775 776 777 778 779 780 781 782 782 783 784 784 785 785 786 786 787 787 787 787 787 787 787 787 786 786 785 784 784 783 783 782 781 781 780 779 778 778 777 776 775 774 774 773 773 772 772 771 771 770 770 769 769
753 755 756 757 758 760 762 763 765 767 768 769 771 772 773 774 776 777 778 778 779 780 781 782 783 783 784 784 785 785 786 786 786 786 787 787 787 786 786 786 785 785 785 784 783 782 782 781 781 780 779 779 778 777 776 776 775 774 773 773 772 771 771 771 770 769 769 769 768
754 756 757 758 759 761 763 764 766 767 769 770 771 773 774 775 776 777 778 778 779 780 781 782 783 783 783 784 785 785 786 786 786 786 786 786 786 785 785 785 784 784 784 783 783 782 781 781 780 779 779 778 778 777 776 775 774 773 773 772 771 771 770 770 769 769 768 768 767
756 757 758 759 761 762 764 765 767 768 769 770 772 773 774 775 776 777 778 779 780 780 781 782 783 783 783 784 785 785 786 786 786 785 785 785 785 784 784 784 784 783 783 783 782 781 781 780 779 779 778 778 777 776 775 775 774 773 772 772 771 770 770 769 769 768 768 767 766